This demonstration page uses our WeatherBlox Daily Observations layout. Learn more.

Hourly Observations for July 6, 2020

Temp ( °F °C ) Dew Point ( °F °C ) Humidity (%) Winds ( mph kmh ) Pressure ( in mb ) Visibility ( mi km ) Precip ( " mm )
12:15 am 00:15 Clear 71 21.5 68 20.2 92 92 ESE 7 11 29.92 1013 10 16.0934 0 0
12:35 am 00:35 Clear 71 21.5 69 20.4 93 93 ESE 6 9 29.92 1013 7 11.26538 0 0
12:55 am 00:55 Clear 70 21.2 68 20.2 94 94 E 7 11 29.93 1013 10 16.0934 0 0
1:15 am 01:15 Clear 70 21 68 20.1 95 95 ESE 7 11 29.93 1014 7 11.26538 0 0
1:35 am 01:35 Clear 71 21.5 69 20.5 94 94 SE 7 11 29.94 1014 10 16.0934 0 0
1:55 am 01:55 Clear 71 21.5 69 20.5 94 94 SE 7 11 29.93 1014 7 11.26538 0 0
2:15 am 02:15 Clear 70 21.3 69 20.5 95 95 SE 7 11 29.93 1013 7 11.26538 0 0
2:35 am 02:35 Clear 70 21.2 69 20.4 95 95 SE 6 9 29.93 1013 7 11.26538 0 0
2:55 am 02:55 Clear 70 21.3 69 20.3 94 94 SE 6 9 29.93 1013 7 11.26538 0 0
3:15 am 03:15 Clear 70 21 68 20 94 94 SE 5 7 29.92 1013 7 11.26538 0 0
3:35 am 03:35 Clear 70 21 68 20 94 94 SSE 5 7 29.91 1013 7 11.26538 0 0
3:55 am 03:55 Clear 69 20.7 68 19.9 95 95 SSE 3 6 29.91 1013 7 11.26538 0 0
4:15 am 04:15 Clear 69 20.6 67 19.7 95 95 SSE 3 6 29.91 1013 7 11.26538 0 0
4:35 am 04:35 Clear 69 20.6 68 19.8 95 95 S 3 6 29.91 1013 7 11.26538 0 0
4:55 am 04:55 Clear 69 20.6 67 19.7 95 95 S 3 6 29.91 1013 7 11.26538 0 0
5:15 am 05:15 Clear 69 20.5 67 19.6 95 95 Calm 29.91 1013 7 11.26538 0 0
5:35 am 05:35 Clear 68 20 67 19.3 96 96 SSE 3 6 29.93 1013 7 11.26538 0 0
5:55 am 05:55 Clear 68 20 67 19.2 95 95 Calm 29.93 1013 7 11.26538 0 0
6:15 am 06:15 Sunny 68 20 67 19.2 95 95 Calm 29.93 1013 7 11.26538 0 0
6:35 am 06:35 Sunny with Mist and Fog 68 20.2 67 19.6 96 96 Calm 29.95 1014 4 6.43736 0 0
6:55 am 06:55 Sunny with Mist and Fog 68 20.2 67 19.5 96 96 Calm 29.96 1014 5 8.0467 0 0
7:15 am 07:15 Sunny with Mist and Fog 69 20.6 68 19.8 95 95 SSE 3 6 29.95 1014 5 8.0467 0 0
7:35 am 07:35 Sunny 71 21.5 69 20.4 93 93 Calm 29.94 1014 7 11.26538 0 0
7:55 am 07:55 Sunny 72 22.2 69 20.7 91 91 SSE 3 6 29.95 1014 7 11.26538 0 0
8:15 am 08:15 Sunny 73 23 70 21 89 89 S 5 7 29.94 1014 10 16.0934 0 0
8:35 am 08:35 Sunny 75 23.7 70 21.3 86 86 S 5 7 29.95 1014 10 16.0934 0 0
8:55 am 08:55 Sunny 76 24.5 70 21.3 82 82 SSE 6 9 29.94 1014 10 16.0934 0 0
9:15 am 09:15 Sunny 77 25.1 71 21.5 81 81 SSE 5 7 29.94 1014 10 16.0934 0 0
9:35 am 09:35 Sunny 78 25.7 71 21.5 78 78 S 5 7 29.94 1014 10 16.0934 0 0
9:55 am 09:55 Sunny 79 26.1 70 21.3 75 75 S 3 6 29.94 1014 10 16.0934 0 0
10:15 am 10:15 Sunny 80 26.4 70 21.2 73 73 SSE 5 7 29.94 1014 10 16.0934 0 0
10:35 am 10:35 Sunny 81 27.3 71 21.5 71 71 SSE 6 9 29.91 1013 10 16.0934 0 0
10:55 am 10:55 Sunny 81 27.4 70 21.2 69 69 SSE 5 7 29.93 1013 10 16.0934 0 0
11:15 am 11:15 Sunny 82 28 70 20.9 65 65 S 6 9 29.91 1013 10 16.0934 0 0
11:35 am 11:35 Sunny 84 28.9 70 21.2 63 63 S 8 13 29.91 1013 10 16.0934 0 0
11:55 am 11:55 Sunny 85 29.3 69 20.7 60 60 SE 6 9 29.89 1012 10 16.0934 0 0
12:15 pm 12:15 Sunny 85 29.5 69 20.3 58 58 SSE 7 11 29.9 1013 10 16.0934 0 0
12:35 pm 12:35 Sunny 86 30.2 68 20.2 55 55 SE 7 11 29.89 1012 10 16.0934 0 0
12:55 pm 12:55 Sunny 87 30.3 66 18.7 50 50 SSE 5 7 29.88 1012 10 16.0934 0 0
1:15 pm 13:15 Sunny 87 30.5 66 19.1 51 51 SSE 7 11 29.87 1012 10 16.0934 0 0
1:35 pm 13:35 Sunny 87 30.5 65 18.5 49 49 S 3 6 29.87 1012 10 16.0934 0 0
1:55 pm 13:55 Sunny 87 30.8 64 17.5 45 45 SSE 5 7 29.85 1011 10 16.0934 0 0
2:15 pm 14:15 Sunny 88 31.1 62 16.6 42 42 S 5 7 29.86 1011 10 16.0934 0 0
2:35 pm 14:35 Partly Cloudy 89 31.4 62 16.8 42 42 S 5 7 29.86 1011 10 16.0934 0 0
2:55 pm 14:55 Partly Cloudy 89 31.7 62 16.9 41 41 SE 7 11 29.85 1011 10 16.0934 0 0
3:15 pm 15:15 Partly Cloudy 89 31.7 62 16.8 41 41 SSE 8 13 29.84 1011 10 16.0934 0 0
3:35 pm 15:35 Sunny 89 31.7 62 16.9 41 41 Calm 29.84 1011 10 16.0934 0 0
3:55 pm 15:55 Partly Cloudy 89 31.6 63 17.2 42 42 SE 6 9 29.84 1010 10 16.0934 0 0
4:15 pm 16:15 Partly Cloudy 89 31.8 63 17.1 41 41 SSE 7 11 29.83 1010 10 16.0934 0 0
4:35 pm 16:35 Sunny 91 32.5 63 17 39 39 SSE 3 6 29.83 1010 10 16.0934 0 0
4:55 pm 16:55 Partly Cloudy 91 32.6 62 16.9 39 39 SE 6 9 29.82 1010 10 16.0934 0 0
5:15 pm 17:15 Partly Cloudy 90 32 63 17.3 41 41 S 5 7 29.82 1010 10 16.0934 0 0
5:35 pm 17:35 Partly Cloudy 90 32.4 64 18 42 42 SE 6 9 29.81 1009 10 16.0934 0 0
5:55 pm 17:55 Partly Cloudy 91 32.8 64 18 41 41 SE 10 17 29.8 1009 10 16.0934 0 0
6:15 pm 18:15 Partly Cloudy 91 32.7 62 16.9 39 39 S 12 19 29.8 1009 10 16.0934 0 0
6:35 pm 18:35 Sunny 90 32 67 19.7 48 48 SE 10 17 29.79 1009 10 16.0934 0 0
6:55 pm 18:55 Partly Cloudy 86 29.9 68 20.2 56 56 SSE 10 17 29.81 1009 10 16.0934 0 0
7:15 pm 19:15 Sunny 86 30.2 69 20.3 55 55 SSE 13 20 29.8 1009 10 16.0934 0 0
7:35 pm 19:35 Sunny 86 29.9 69 20.7 58 58 SSE 9 15 29.79 1009 10 16.0934 0 0
7:55 pm 19:55 Sunny 85 29.3 69 20.4 59 59 SSE 7 11 29.8 1009 10 16.0934 0 0
8:15 pm 20:15 Sunny 84 28.7 69 20.5 61 61 SSE 8 13 29.81 1009 10 16.0934 0 0
8:35 pm 20:35 Sunny 82 27.7 67 19.7 62 62 SSE 10 17 29.82 1010 10 16.0934 0 0
8:55 pm 20:55 Sunny 80 26.5 66 19 63 63 SSE 10 17 29.82 1010 10 16.0934 0 0
9:15 pm 21:15 Clear 78 25.7 66 19.1 67 67 SE 9 15 29.83 1010 10 16.0934 0 0
9:35 pm 21:35 Clear 77 25 67 19.2 70 70 SE 10 17 29.85 1011 10 16.0934 0 0
9:55 pm 21:55 Clear 77 24.9 67 19.5 72 72 ESE 8 13 29.88 1012 10 16.0934 0 0
10:15 pm 22:15 Clear 75 24.1 67 19.7 77 77 ESE 6 9 29.9 1013 10 16.0934 0 0
10:35 pm 22:35 Clear 74 23.2 68 20 82 82 E 7 11 29.94 1014 10 16.0934 0 0
10:55 pm 22:55 Clear 73 22.7 68 19.8 84 84 ESE 7 11 29.95 1014 10 16.0934 0 0
11:15 pm 23:15 Clear 72 22.4 67 19.7 85 85 E 8 13 29.97 1015 10 16.0934 0 0
11:35 pm 23:35 Clear 72 22.2 68 19.8 86 86 ESE 6 9 29.97 1015 10 16.0934 0 0
11:55 pm 23:55 Clear 72 22.1 68 19.8 87 87 SE 5 7 29.97 1015 10 16.0934 0 0

Powered by AerisWeather